CW8192 Weather Reports


Display with metric or nautical units.
time (UTC)temp
F
wind
direction
speed
MPH
gust
MPH
rain 1hr
in
rain 24hr
in
rain mn
in
humidity
%
barometer
mb
20260901091705 67 144 1.0 3.0 0.01 0.01 0.01 95 1015.0
20260901091204 67 129 2.0 3.0 0.00 0.00 0.00 95 1014.9
20260901090704 67 139 2.0 5.0 0.00 0.00 0.00 95 1015.0
20260901090204 67 121 1.0 3.0 0.00 0.00 0.00 95 1015.1
20260901085205 67 158 2.0 7.0 0.00 0.00 0.00 94 1015.0
20260901084704 67 143 2.0 5.0 0.00 0.00 0.00 94 1015.1
20260901084204 67 169 2.0 3.0 0.00 0.00 0.00 94 1015.1
20260901083204 67 118 1.0 2.0 0.00 0.00 0.00 94 1015.3
20260901082705 67 123 0.0 3.0 0.00 0.00 0.00 93 1015.3
20260901082204 67 131 2.0 3.0 0.00 0.00 0.00 93 1015.4
20260901081704 68 77 1.0 2.0 0.00 0.00 0.00 93 1015.3
20260901081204 68 147 2.0 3.0 0.00 0.00 0.00 93 1015.4
20260901080705 68 170 0.0 3.0 0.00 0.00 0.00 93 1015.5
20260901080204 68 167 0.0 3.0 0.00 0.00 0.00 93 1015.6
20260901075704 67 199 0.0 3.0 0.00 0.00 0.00 93 1015.6
20260901075205 67 194 0.0 0.0 0.00 0.00 0.00 93 1015.5
20260901074705 67 194 0.0 0.0 0.00 0.00 0.00 93 1015.6
20260901074205 67 195 0.0 0.0 0.00 0.00 0.00 93 1015.6
20260901073704 67 154 0.0 0.0 0.00 0.00 0.00 93 1015.5
20260901073204 67 199 0.0 0.0 0.00 0.00 0.00 93 1015.6
20260901072705 67 201 0.0 0.0 0.00 0.00 0.00 93 1015.7
20260901071704 67 114 0.0 0.0 0.00 0.00 0.00 93 1015.8
20260901071204 67 123 0.0 0.0 0.00 0.00 0.00 93 1015.7
20260901070204 67 165 0.0 0.0 0.00 0.00 0.00 94 1015.6
20260901065205 67 175 0.0 0.0 0.00 0.00 0.00 94 1015.6
20260901064704 67 160 0.0 0.0 0.00 0.00 0.00 95 1015.6
20260901064205 67 135 0.0 0.0 0.00 0.00 0.00 95 1015.6
20260901063704 67 112 0.0 0.0 0.00 0.00 0.00 94 1015.6
20260901063205 67 122 0.0 0.0 0.00 0.00 0.00 95 1015.8
20260901062704 67 130 0.0 0.0 0.00 0.00 0.00 94 1016.0
20260901062204 67 106 0.0 0.0 0.00 0.00 0.00 94 1016.3
20260901060704 67 187 0.0 0.0 0.00 0.00 0.00 94 1016.6
20260901055204 67 130 0.0 0.0 0.00 0.00 0.00 94 1016.6
20260901054704 66 132 0.0 0.0 0.00 0.00 0.00 94 1016.7
20260901054204 66 150 0.0 0.0 0.00 0.00 0.00 94 1016.7
20260901053704 66 122 0.0 0.0 0.00 0.00 0.00 94 1016.8
20260901053205 66 122 0.0 0.0 0.00 0.00 0.00 94 1017.1
20260901052704 67 122 0.0 0.0 0.00 0.00 0.00 94 1017.0
20260901052205 67 122 0.0 0.0 0.00 0.00 0.00 94 1016.9
20260901051704 67 124 0.0 0.0 0.00 0.00 0.00 94 1016.8
20260901051205 66 97 0.0 0.0 0.00 0.00 0.00 94 1016.8
20260901045204 66 119 0.0 0.0 0.00 0.00 0.00 94 1017.0
20260901044704 66 115 0.0 0.0 0.00 0.00 0.00 94 1017.0
20260901044204 66 161 0.0 0.0 0.00 0.00 0.00 94 1017.1
20260901043704 66 147 0.0 0.0 0.00 0.00 0.00 94 1017.2
20260901043204 66 197 0.0 0.0 0.00 0.00 0.00 94 1017.1
20260901042704 66 198 0.0 0.0 0.00 0.00 0.00 93 1017.2
20260901042204 66 200 0.0 0.0 0.00 0.00 0.00 93 1017.1
20260901041704 66 200 0.0 0.0 0.00 0.00 0.00 93 1017.1
20260901041204 67 200 0.0 0.0 0.00 0.00 0.00 92 1017.0
20260901040704 67 182 0.0 0.0 0.00 0.00 0.00 92 1016.9
20260901040204 67 117 1.0 3.0 0.00 0.00 0.00 92 1016.9
20260901035704 67 139 1.0 2.0 0.00 0.00 0.00 92 1016.8
20260901035205 67 164 1.0 3.0 0.00 0.00 0.00 92 1016.7
20260901034704 67 187 1.0 3.0 0.00 0.00 0.00 93 1016.8
20260901034204 66 177 0.0 0.0 0.00 0.00 0.00 92 1016.9
20260901033704 66 197 0.0 0.0 0.00 0.00 0.00 92 1016.9
20260901033204 66 200 0.0 0.0 0.00 0.00 0.00 93 1016.9
20260901032704 66 160 0.0 0.0 0.00 0.00 0.00 92 1016.8
20260901032204 66 183 0.0 0.0 0.00 0.00 0.00 92 1016.8
20260901030205 67 161 0.0 0.0 0.00 0.00 0.00 92 1017.1
20260901025704 67 181 0.0 0.0 0.00 0.00 0.00 91 1017.2
20260901025204 67 186 0.0 0.0 0.00 0.00 0.00 90 1017.2
20260901024705 67 192 0.0 0.0 0.00 0.00 0.00 91 1017.3
20260901024204 68 195 0.0 0.0 0.00 0.00 0.00 90 1017.3
20260901023704 68 180 0.0 0.0 0.00 0.00 0.00 90 1017.4
20260901023204 68 189 0.0 0.0 0.00 0.00 0.00 90 1017.3
20260901021704 67 217 0.0 0.0 0.00 0.00 0.00 92 1017.3
20260901015704 67 175 0.0 0.0 0.00 0.00 0.00 92 1017.5
20260901014704 67 175 0.0 0.0 0.00 0.00 0.00 91 1017.4
20260901014204 67 175 0.0 0.0 0.00 0.00 0.00 91 1017.3
20260901012704 67 218 0.0 0.0 0.00 0.00 0.00 91 1017.3
20260901012204 67 242 0.0 0.0 0.00 0.00 0.00 92 1017.3
20260901011704 67 242 0.0 0.0 0.00 0.00 0.00 90 1017.4
20260901011204 67 242 0.0 0.0 0.00 0.00 0.00 90 1017.2
20260901010704 67 242 0.0 0.0 0.00 0.00 0.00 90 1017.4
20260901010204 68 242 0.0 0.0 0.00 0.00 0.00 90 1017.4
20260901005704 68 242 0.0 0.0 0.00 0.00 0.00 89 1017.3
20260901003704 68 242 0.0 0.0 0.00 0.00 0.00 88 1017.4
20260901003204 68 242 0.0 0.0 0.00 0.00 0.00 88 1017.4
20260901002704 68 242 0.0 0.0 0.00 0.00 0.00 88 1017.4
20260901002203 68 242 0.0 0.0 0.00 0.00 0.00 88 1017.4
20260901001704 68 242 0.0 0.0 0.00 0.00 0.00 88 1017.3
20260901001204 68 242 0.0 0.0 0.00 0.00 0.00 87 1017.4
20260901000705 68 242 0.0 0.0 0.00 0.00 0.00 87 1017.3
20260901000205 68 242 0.0 0.0 0.00 0.00 0.00 88 1017.3
20260831234704 69 262 0.0 0.0 0.00 0.00 0.00 86 1017.3
20260831234204 69 262 0.0 0.0 0.00 0.00 0.00 86 1017.4
20260831233704 69 262 0.0 0.0 0.00 0.00 0.00 86 1017.3
20260831233204 69 262 0.0 0.0 0.00 0.00 0.00 85 1017.4
20260831232703 70 262 0.0 0.0 0.00 0.00 0.00 86 1017.4
20260831232204 70 262 0.0 0.0 0.00 0.00 0.00 85 1017.4
20260831231704 70 262 0.0 0.0 0.00 0.00 0.00 84 1017.5
20260831230705 70 262 0.0 0.0 0.00 0.00 0.00 84 1017.7
20260831230204 70 210 0.0 1.0 0.00 0.00 0.00 84 1017.7
20260831225704 70 283 0.0 0.0 0.00 0.00 0.00 84 1017.8
20260831225204 70 297 0.0 0.0 0.00 0.00 0.00 85 1017.8
20260831224704 71 297 0.0 0.0 0.00 0.00 0.00 83 1017.8
20260831224204 71 301 0.0 0.0 0.00 0.00 0.00 82 1017.9
20260831223704 71 310 1.0 2.0 0.00 0.00 0.00 82 1017.9
20260831223205 71 302 0.0 1.0 0.00 0.00 0.00 82 1018.0
20260831222704 72 261 0.0 0.0 0.00 0.00 0.00 81 1017.9
20260831222204 72 261 0.0 0.0 0.00 0.00 0.00 80 1018.0
20260831221705 72 261 0.0 0.0 0.00 0.00 0.00 79 1017.9
20260831220706 72 227 1.0 2.0 0.00 0.00 0.00 78 1017.8
20260831220205 72 228 1.0 3.0 0.00 0.00 0.00 77 1017.8
20260831215705 72 252 1.0 2.0 0.00 0.00 0.00 77 1017.8
20260831215205 73 245 0.0 2.0 0.00 0.00 0.00 77 1017.9
20260831214704 73 243 0.0 0.0 0.00 0.00 0.00 79 1017.9
20260831214204 73 243 1.0 3.0 0.00 0.00 0.00 77 1017.9
20260831213705 73 285 0.0 2.0 0.00 0.00 0.00 77 1017.8
20260831213205 73 271 1.0 3.0 0.00 0.00 0.00 76 1017.8
20260831212205 73 227 1.0 3.0 0.00 0.00 0.00 76 1017.7
20260831211705 74 233 2.0 3.0 0.00 0.00 0.00 76 1017.6
20260831211205 74 240 1.0 3.0 0.00 0.00 0.00 75 1017.7
20260831210206 75 235 2.0 3.0 0.00 0.00 0.00 74 1017.7
20260831205706 75 230 1.0 3.0 0.00 0.00 0.00 74 1017.7
20260831205205 76 237 1.0 3.0 0.00 0.00 0.00 74 1017.6
20260831204704 75 213 1.0 2.0 0.00 0.00 0.00 75 1017.7
20260831204205 75 238 1.0 2.0 0.00 0.00 0.00 75 1017.8
20260831203704 74 221 0.0 1.0 0.00 0.00 0.00 78 1017.8
20260831203205 75 224 0.0 1.0 0.00 0.00 0.00 76 1017.8
20260831202705 75 220 0.0 2.0 0.00 0.00 0.00 76 1017.8
20260831201705 75 227 0.0 1.0 0.00 0.00 0.00 77 1017.9
20260831201205 75 212 2.0 5.0 0.00 0.00 0.00 75 1017.8
20260831200706 75 331 1.0 3.0 0.00 0.00 0.00 74 1017.8
20260831200205 75 248 2.0 6.0 0.00 0.00 0.00 75 1017.9
20260831195705 75 200 1.0 3.0 0.00 0.00 0.00 74 1017.9
20260831195206 75 221 2.0 3.0 0.00 0.00 0.00 72 1018.0
20260831194705 76 204 1.0 3.0 0.00 0.00 0.00 72 1018.1
20260831194205 76 229 1.0 2.0 0.00 0.00 0.00 71 1018.0
20260831193705 76 214 1.0 2.0 0.00 0.00 0.00 74 1018.1
20260831193205 76 210 1.0 3.0 0.00 0.00 0.00 73 1018.2
20260831192705 76 181 2.0 3.0 0.00 0.00 0.00 75 1018.2
20260831191704 76 223 1.0 2.0 0.00 0.00 0.00 73 1018.3
20260831191205 76 253 1.0 2.0 0.00 0.00 0.00 71 1018.3
20260831190704 76 218 2.0 5.0 0.00 0.00 0.00 71 1018.4
20260831190205 76 236 1.0 2.0 0.00 0.00 0.00 72 1018.5
20260831185705 76 221 2.0 3.0 0.00 0.00 0.00 73 1018.6
20260831185205 76 187 2.0 3.0 0.00 0.00 0.00 74 1018.7
20260831184705 76 225 1.0 3.0 0.00 0.00 0.00 72 1018.9
20260831184204 76 280 1.0 2.0 0.00 0.00 0.00 71 1018.8
20260831183205 76 212 2.0 5.0 0.00 0.00 0.00 72 1019.2
20260831182705 76 221 2.0 3.0 0.00 0.00 0.00 75 1018.9
20260831181705 75 222 1.0 3.0 0.00 0.00 0.00 74 1019.0
20260831181205 75 215 1.0 3.0 0.00 0.00 0.00 73 1019.0
20260831180704 75 269 1.0 3.0 0.00 0.00 0.00 76 1019.1
20260831180205 74 286 0.0 2.0 0.00 0.00 0.00 74 1019.2
20260831175705 74 286 1.0 2.0 0.00 0.00 0.00 76 1019.1
20260831175204 75 173 1.0 3.0 0.00 0.00 0.00 75 1019.1
20260831174705 75 224 2.0 5.0 0.00 0.00 0.00 74 1019.0
20260831173705 75 275 1.0 3.0 0.00 0.00 0.00 73 1019.1
20260831172705 74 291 1.0 2.0 0.00 0.00 0.00 76 1019.1
20260831171705 74 207 0.0 2.0 0.00 0.00 0.00 76 1019.2
20260831171205 73 182 0.0 2.0 0.00 0.00 0.00 76 1019.2
20260831170705 74 209 1.0 1.0 0.00 0.00 0.00 76 1019.4
20260831170205 74 253 0.0 0.0 0.00 0.00 0.00 76 1019.8
20260831165705 74 282 1.0 2.0 0.00 0.00 0.00 75 1019.9
20260831165204 74 185 1.0 2.0 0.00 0.00 0.00 75 1020.0
20260831164705 74 19 1.0 3.0 0.00 0.00 0.00 76 1020.1
20260831163705 73 288 1.0 2.0 0.00 0.00 0.00 77 1020.1
20260831163205 73 338 0.0 1.0 0.00 0.00 0.00 77 1020.1
20260831162704 73 236 1.0 2.0 0.00 0.00 0.00 77 1020.0
20260831161705 74 19 0.0 3.0 0.00 0.00 0.00 78 1020.2
20260831161204 74 37 1.0 3.0 0.00 0.00 0.00 73 1020.1
20260831160705 75 121 0.0 1.0 0.00 0.00 0.00 77 1020.3
20260831160205 75 128 0.0 3.0 0.00 0.00 0.00 75 1020.2
20260831155704 75 342 0.0 1.0 0.00 0.00 0.00 80 1020.2
20260831155205 74 240 1.0 2.0 0.00 0.00 0.00 75 1020.3
20260831154205 73 313 0.0 2.0 0.00 0.00 0.00 80 1020.4
20260831153704 73 12 1.0 2.0 0.00 0.00 0.00 80 1020.4
20260831152705 72 314 0.0 2.0 0.00 0.00 0.00 83 1020.5
20260831152205 72 314 1.0 3.0 0.00 0.00 0.00 81 1020.6
20260831151704 72 291 1.0 2.0 0.00 0.00 0.00 79 1020.7
20260831151204 72 284 0.0 2.0 0.00 0.00 0.00 79 1020.4
20260831150704 73 285 1.0 2.0 0.00 0.00 0.00 80 1020.3
20260831150205 73 314 1.0 2.0 0.00 0.00 0.00 80 1020.2
20260831145704 73 317 0.0 0.0 0.00 0.00 0.00 80 1020.1
20260831145204 74 265 1.0 2.0 0.00 0.00 0.00 78 1020.2
20260831144704 73 292 1.0 2.0 0.00 0.00 0.00 79 1020.2
20260831144205 73 263 1.0 2.0 0.00 0.00 0.00 81 1020.2
20260831143705 73 269 2.0 3.0 0.00 0.00 0.00 78 1020.3
20260831143204 72 112 1.0 3.0 0.00 0.00 0.00 85 1020.4
20260831142705 71 234 0.0 2.0 0.00 0.00 0.00 85 1020.3
20260831142205 71 158 1.0 3.0 0.00 0.00 0.00 82 1020.3
20260831141704 71 0 1.0 3.0 0.00 0.00 0.00 83 1020.3
20260831141204 71 124 1.0 3.0 0.00 0.00 0.00 84 1020.2
20260831140205 70 239 0.0 3.0 0.00 0.00 0.00 86 1020.3
20260831135704 70 122 3.0 6.0 0.00 0.00 0.00 87 1020.5
20260831135205 68 165 2.0 3.0 0.00 0.00 0.00 88 1020.4
20260831134704 67 85 3.0 5.0 0.00 0.00 0.00 90 1020.5
20260831134204 67 125 2.0 3.0 0.00 0.00 0.00 92 1020.5
20260831133705 67 84 1.0 3.0 0.00 0.00 0.00 91 1020.5
20260831133204 67 269 0.0 0.0 0.00 0.00 0.00 92 1020.4
20260831132704 66 269 0.0 0.0 0.00 0.00 0.00 90 1020.4
20260831132204 66 269 0.0 0.0 0.00 0.00 0.00 92 1020.4
20260831131704 66 63 0.0 0.0 0.00 0.00 0.00 94 1020.5
20260831131205 66 63 0.0 0.0 0.00 0.00 0.00 93 1020.5
20260831130705 66 63 0.0 0.0 0.00 0.00 0.00 96 1020.5
20260831130204 65 88 0.0 0.0 0.00 0.00 0.00 96 1020.5
20260831125705 65 96 0.0 0.0 0.00 0.00 0.00 96 1020.6
20260831125205 64 131 0.0 0.0 0.00 0.00 0.00 98 1020.7
20260831124704 64 193 0.0 0.0 0.00 0.00 0.00 98 1020.8
20260831124205 64 66 0.0 0.0 0.00 0.00 0.00 99 1020.7
20260831123705 64 93 0.0 0.0 0.00 0.00 0.00 99 1020.6
20260831123204 64 184 0.0 0.0 0.00 0.00 0.00 99 1020.6
20260831122704 63 184 0.0 0.0 0.00 0.00 0.00 99 1020.7
20260831122205 63 166 0.0 0.0 0.00 0.00 0.00 99 1020.7
20260831121705 63 94 0.0 0.0 0.00 0.00 0.00 99 1020.8
20260831121205 63 94 0.0 0.0 0.00 0.00 0.00 99 1020.6
20260831120705 63 94 0.0 0.0 0.00 0.00 0.00 99 1020.5
20260831120204 62 94 0.0 0.0 0.00 0.00 0.00 99 1020.4
20260831115704 62 94 0.0 0.0 0.00 0.00 0.00 99 1020.5
20260831114704 62 114 0.0 0.0 0.00 0.00 0.00 99 1020.6
20260831114204 61 114 0.0 0.0 0.00 0.00 0.00 99 1020.6
20260831113705 61 114 0.0 0.0 0.00 0.00 0.00 99 1020.5
20260831113204 61 114 0.0 0.0 0.00 0.00 0.00 99 1020.5
20260831112704 61 114 0.0 0.0 0.00 0.00 0.00 98 1020.4
20260831112205 60 114 0.0 0.0 0.00 0.00 0.00 98 1020.2
20260831111705 60 114 0.0 0.0 0.00 0.00 0.00 99 1020.1
20260831111204 60 114 0.0 0.0 0.00 0.00 0.00 98 1019.9
20260831110205 59 114 0.0 0.0 0.00 0.00 0.00 98 1019.6
20260831105205 59 114 0.0 0.0 0.00 0.00 0.00 98 1019.6
20260831104705 59 114 0.0 0.0 0.00 0.00 0.00 98 1019.4
20260831104205 59 105 0.0 0.0 0.00 0.00 0.00 98 1019.5
20260831103705 59 105 0.0 0.0 0.00 0.00 0.00 98 1019.4
20260831103204 59 105 0.0 0.0 0.00 0.00 0.00 98 1019.4
20260831102204 59 105 0.0 0.0 0.00 0.00 0.00 98 1019.2
20260831101704 59 105 0.0 0.0 0.00 0.00 0.00 98 1019.2
20260831101204 59 105 0.0 0.0 0.00 0.00 0.00 98 1019.3
20260831100705 59 105 0.0 0.0 0.00 0.00 0.00 98 1019.4
20260831100204 58 105 0.0 0.0 0.00 0.00 0.00 98 1019.3
20260831095705 58 98 0.0 0.0 0.00 0.00 0.00 98 1019.2
20260831095204 58 96 0.0 0.0 0.00 0.00 0.00 98 1019.0
20260831094704 58 289 0.0 0.0 0.00 0.00 0.00 98 1019.0
20260831094204 58 289 0.0 0.0 0.00 0.00 0.00 98 1019.0
20260831093704 58 314 0.0 0.0 0.00 0.00 0.00 98 1019.1
20260831093204 58 82 0.0 0.0 0.00 0.00 0.00 98 1019.1
20260831092704 58 82 0.0 0.0 0.00 0.00 0.00 98 1019.2